| time (UTC) | temp C | wind direction | speed KPH | gust KPH | rain 1hr cm | rain 24hr cm | rain mn cm | humidity % | barometer mb |
| 20260905190513 | 14 | 280 | 27.4 | 53.1 | 0.00 | 0.61 | 0.38 | 78 | 1010.4 |
| 20260905190030 | 14 | 275 | 27.4 | 43.5 | 0.00 | 0.64 | 0.38 | 78 | 1010.4 |
| 20260905185515 | 14 | 262 | 20.9 | 43.5 | 0.00 | 0.74 | 0.38 | 78 | 1010.6 |
| 20260905185015 | 14 | 250 | 24.1 | 43.5 | 0.00 | 0.74 | 0.38 | 79 | 1010.4 |
| 20260905184506 | 14 | 265 | 22.5 | 43.5 | 0.00 | 0.74 | 0.38 | 79 | 1010.4 |
| 20260905184003 | 14 | 300 | 17.7 | 40.2 | 0.00 | 0.74 | 0.38 | 79 | 1010.3 |
| 20260905183503 | 14 | 240 | 17.7 | 53.1 | 0.00 | 0.74 | 0.38 | 79 | 1010.3 |
| 20260905183014 | 14 | 259 | 29.0 | 53.1 | 0.00 | 0.76 | 0.38 | 77 | 1010.2 |
| 20260905182510 | 14 | 278 | 22.5 | 35.4 | 0.00 | 0.76 | 0.38 | 77 | 1010.0 |
| 20260905182010 | 14 | 275 | 20.9 | 32.2 | 0.00 | 0.76 | 0.38 | 77 | 1009.9 |
| 20260905181515 | 14 | 253 | 16.1 | 41.8 | 0.00 | 0.76 | 0.38 | 75 | 1009.9 |
| 20260905181010 | 15 | 291 | 24.1 | 51.5 | 0.00 | 0.76 | 0.38 | 74 | 1009.8 |
| 20260905180513 | 15 | 313 | 20.9 | 51.5 | 0.00 | 0.76 | 0.38 | 74 | 1009.7 |
| 20260905180030 | 15 | 263 | 17.7 | 37.0 | 0.00 | 0.76 | 0.38 | 73 | 1009.5 |
| 20260905175516 | 15 | 255 | 24.1 | 37.0 | 0.00 | 0.76 | 0.38 | 72 | 1009.6 |
| 20260905175018 | 15 | 275 | 19.3 | 37.0 | 0.00 | 0.76 | 0.38 | 72 | 1009.5 |
| 20260905174507 | 15 | 292 | 24.1 | 38.6 | 0.00 | 0.76 | 0.38 | 71 | 1009.4 |
| 20260905174003 | 15 | 273 | 22.5 | 38.6 | 0.00 | 0.76 | 0.38 | 71 | 1009.3 |
| 20260905173507 | 15 | 294 | 20.9 | 38.6 | 0.00 | 0.76 | 0.38 | 71 | 1009.5 |
| 20260905173013 | 15 | 247 | 19.3 | 35.4 | 0.00 | 0.76 | 0.38 | 71 | 1009.3 |
| 20260905172506 | 15 | 290 | 14.5 | 35.4 | 0.00 | 0.76 | 0.38 | 72 | 1009.4 |
| 20260905172010 | 15 | 257 | 17.7 | 40.2 | 0.00 | 0.76 | 0.38 | 71 | 1009.4 |
| 20260905171522 | 15 | 262 | 20.9 | 37.0 | 0.00 | 0.76 | 0.38 | 71 | 1009.4 |
| 20260905171013 | 15 | 256 | 20.9 | 35.4 | 0.00 | 0.76 | 0.38 | 72 | 1009.4 |
| 20260905170515 | 15 | 272 | 17.7 | 38.6 | 0.00 | 0.76 | 0.38 | 71 | 1009.4 |
| 20260905170028 | 15 | 249 | 20.9 | 38.6 | 0.00 | 0.76 | 0.38 | 73 | 1009.4 |
| 20260905165516 | 15 | 254 | 11.3 | 33.8 | 0.00 | 0.76 | 0.38 | 75 | 1009.3 |
| 20260905165003 | 15 | 245 | 17.7 | 33.8 | 0.00 | 0.76 | 0.38 | 72 | 1009.2 |
| 20260905164507 | 15 | 254 | 16.1 | 38.6 | 0.00 | 0.76 | 0.38 | 72 | 1009.3 |
| 20260905164005 | 15 | 252 | 19.3 | 41.8 | 0.00 | 0.76 | 0.38 | 70 | 1009.2 |
| 20260905163510 | 16 | 325 | 25.7 | 41.8 | 0.00 | 0.76 | 0.38 | 70 | 1009.1 |
| 20260905163012 | 16 | 286 | 24.1 | 41.8 | 0.00 | 0.76 | 0.38 | 71 | 1008.9 |
| 20260905162510 | 16 | 256 | 17.7 | 33.8 | 0.00 | 0.76 | 0.38 | 71 | 1009.0 |
| 20260905162013 | 16 | 267 | 20.9 | 43.5 | 0.00 | 0.76 | 0.38 | 70 | 1009.1 |
| 20260905161524 | 16 | 244 | 24.1 | 43.5 | 0.00 | 0.76 | 0.38 | 70 | 1008.9 |
| 20260905161011 | 16 | 222 | 20.9 | 40.2 | 0.00 | 0.76 | 0.38 | 71 | 1009.0 |
| 20260905160515 | 16 | 224 | 17.7 | 29.0 | 0.00 | 0.76 | 0.38 | 72 | 1008.9 |
| 20260905160044 | 16 | 261 | 17.7 | 40.2 | 0.00 | 0.76 | 0.38 | 73 | 1008.9 |
| 20260905155514 | 16 | 259 | 20.9 | 41.8 | 0.00 | 0.76 | 0.38 | 72 | 1008.8 |
| 20260905155002 | 16 | 285 | 22.5 | 41.8 | 0.00 | 0.76 | 0.38 | 73 | 1008.8 |
| 20260905154508 | 16 | 270 | 16.1 | 45.1 | 0.00 | 0.76 | 0.38 | 70 | 1008.8 |
| 20260905154006 | 16 | 312 | 19.3 | 45.1 | 0.00 | 0.76 | 0.38 | 71 | 1008.7 |
| 20260905153510 | 16 | 275 | 27.4 | 43.5 | 0.00 | 0.76 | 0.38 | 68 | 1008.7 |
| 20260905153016 | 17 | 279 | 22.5 | 49.9 | 0.00 | 0.76 | 0.38 | 68 | 1008.6 |
| 20260905152511 | 17 | 290 | 29.0 | 49.9 | 0.00 | 0.76 | 0.38 | 66 | 1008.6 |
| 20260905152016 | 17 | 269 | 27.4 | 49.9 | 0.00 | 0.76 | 0.38 | 66 | 1008.6 |
| 20260905151529 | 17 | 248 | 24.1 | 40.2 | 0.00 | 0.76 | 0.38 | 66 | 1008.5 |
| 20260905151016 | 17 | 246 | 24.1 | 43.5 | 0.00 | 0.76 | 0.38 | 68 | 1008.3 |
| 20260905150517 | 17 | 258 | 22.5 | 49.9 | 0.00 | 0.76 | 0.38 | 68 | 1008.5 |
| 20260905150028 | 17 | 255 | 25.7 | 49.9 | 0.00 | 0.76 | 0.38 | 68 | 1008.3 |
| 20260905145519 | 17 | 281 | 24.1 | 46.7 | 0.00 | 0.76 | 0.38 | 68 | 1008.3 |
| 20260905145007 | 17 | 254 | 22.5 | 41.8 | 0.00 | 0.76 | 0.38 | 68 | 1008.3 |
| 20260905144514 | 17 | 247 | 19.3 | 41.8 | 0.00 | 0.76 | 0.38 | 66 | 1008.3 |
| 20260905144013 | 17 | 276 | 14.5 | 41.8 | 0.00 | 0.76 | 0.38 | 67 | 1008.3 |
| 20260905143508 | 17 | 298 | 22.5 | 45.1 | 0.00 | 0.76 | 0.38 | 66 | 1008.2 |
| 20260905143018 | 17 | 319 | 19.3 | 45.1 | 0.00 | 0.76 | 0.38 | 67 | 1008.1 |
| 20260905142517 | 17 | 263 | 20.9 | 37.0 | 0.00 | 0.76 | 0.38 | 67 | 1008.2 |
| 20260905142014 | 18 | 257 | 17.7 | 41.8 | 0.00 | 0.76 | 0.38 | 67 | 1008.2 |
| 20260905141526 | 18 | 272 | 17.7 | 41.8 | 0.00 | 0.79 | 0.38 | 67 | 1008.2 |
| 20260905141016 | 17 | 245 | 12.9 | 35.4 | 0.00 | 0.79 | 0.38 | 71 | 1008.1 |
| 20260905140519 | 17 | 236 | 22.5 | 37.0 | 0.00 | 0.79 | 0.38 | 69 | 1008.1 |
| 20260905140032 | 17 | 270 | 20.9 | 45.1 | 0.00 | 0.81 | 0.38 | 71 | 1008.0 |
| 20260905135506 | 18 | 247 | 22.5 | 45.1 | 0.00 | 0.84 | 0.38 | 71 | 1008.1 |
| 20260905135009 | 18 | 244 | 20.9 | 33.8 | 0.00 | 0.84 | 0.38 | 71 | 1008.1 |
| 20260905134513 | 17 | 281 | 17.7 | 37.0 | 0.00 | 0.84 | 0.38 | 72 | 1008.0 |
| 20260905134011 | 17 | 268 | 24.1 | 37.0 | 0.00 | 0.84 | 0.38 | 73 | 1008.0 |
| 20260905133512 | 16 | 246 | 19.3 | 41.8 | 0.00 | 0.86 | 0.38 | 73 | 1008.1 |
| 20260905133026 | 16 | 263 | 19.3 | 41.8 | 0.00 | 1.09 | 0.38 | 73 | 1008.0 |
| 20260905132514 | 17 | 278 | 24.1 | 37.0 | 0.00 | 1.17 | 0.38 | 72 | 1008.0 |
| 20260905132016 | 17 | 305 | 20.9 | 38.6 | 0.00 | 1.22 | 0.38 | 70 | 1008.0 |
| 20260905131529 | 17 | 208 | 24.1 | 41.8 | 0.00 | 1.27 | 0.38 | 72 | 1008.0 |
| 20260905131016 | 17 | 285 | 20.9 | 41.8 | 0.00 | 1.35 | 0.38 | 72 | 1007.9 |
| 20260905130516 | 16 | 279 | 22.5 | 41.8 | 0.00 | 1.60 | 0.38 | 73 | 1008.0 |
| 20260905130030 | 17 | 252 | 14.5 | 40.2 | 0.00 | 1.80 | 0.38 | 72 | 1008.0 |
| 20260905125508 | 17 | 279 | 12.9 | 40.2 | 0.00 | 1.96 | 0.38 | 73 | 1007.8 |
| 20260905125008 | 17 | 248 | 22.5 | 38.6 | 0.00 | 2.03 | 0.38 | 71 | 1007.7 |
| 20260905124518 | 17 | 221 | 22.5 | 41.8 | 0.00 | 2.11 | 0.38 | 71 | 1007.7 |
| 20260905124009 | 17 | 286 | 17.7 | 41.8 | 0.00 | 2.16 | 0.38 | 72 | 1007.7 |
| 20260905123513 | 17 | 269 | 16.1 | 32.2 | 0.00 | 2.16 | 0.38 | 72 | 1007.6 |
| 20260905123024 | 17 | 257 | 19.3 | 37.0 | 0.00 | 2.16 | 0.38 | 71 | 1007.5 |
| 20260905122513 | 18 | 244 | 20.9 | 37.0 | 0.00 | 2.18 | 0.38 | 69 | 1007.5 |
| 20260905122020 | 17 | 268 | 14.5 | 37.0 | 0.00 | 2.24 | 0.38 | 72 | 1007.5 |
| 20260905121528 | 18 | 250 | 20.9 | 37.0 | 0.00 | 2.24 | 0.38 | 72 | 1007.4 |
| 20260905121019 | 17 | 256 | 19.3 | 46.7 | 0.00 | 2.29 | 0.38 | 70 | 1007.4 |
| 20260905120518 | 18 | 249 | 19.3 | 48.3 | 0.00 | 2.31 | 0.38 | 71 | 1007.3 |
| 20260905120023 | 18 | 253 | 29.0 | 48.3 | 0.00 | 2.34 | 0.38 | 69 | 1007.3 |
| 20260905115508 | 18 | 259 | 27.4 | 43.5 | 0.00 | 2.34 | 0.38 | 70 | 1007.3 |
| 20260905115012 | 17 | 246 | 29.0 | 43.5 | 0.00 | 2.34 | 0.38 | 71 | 1007.2 |
| 20260905114518 | 17 | 260 | 24.1 | 45.1 | 0.00 | 2.36 | 0.38 | 70 | 1007.3 |
| 20260905114011 | 17 | 259 | 29.0 | 45.1 | 0.00 | 2.39 | 0.38 | 71 | 1007.2 |
| 20260905113516 | 17 | 261 | 22.5 | 41.8 | 0.00 | 2.41 | 0.38 | 71 | 1007.2 |
| 20260905113028 | 17 | 296 | 24.1 | 43.5 | 0.00 | 2.41 | 0.38 | 71 | 1007.1 |
| 20260905112516 | 17 | 227 | 24.1 | 43.5 | 0.00 | 2.44 | 0.38 | 69 | 1007.1 |
| 20260905112016 | 17 | 252 | 11.3 | 32.2 | 0.00 | 2.44 | 0.38 | 72 | 1007.1 |
| 20260905111558 | 17 | 255 | 16.1 | 32.2 | 0.00 | 2.44 | 0.38 | 72 | 1007.0 |
| 20260905111014 | 18 | 221 | 17.7 | 32.2 | 0.00 | 2.46 | 0.38 | 71 | 1007.1 |
| 20260905110521 | 17 | 213 | 14.5 | 32.2 | 0.00 | 2.46 | 0.38 | 71 | 1007.0 |
| 20260905110019 | 17 | 274 | 12.9 | 41.8 | 0.00 | 2.46 | 0.38 | 71 | 1007.0 |
| 20260905105510 | 17 | 268 | 22.5 | 40.2 | 0.00 | 2.49 | 0.38 | 72 | 1007.0 |
| 20260905105011 | 17 | 223 | 16.1 | 41.8 | 0.00 | 2.51 | 0.38 | 71 | 1006.9 |
| 20260905104523 | 18 | 291 | 24.1 | 38.6 | 0.00 | 2.51 | 0.38 | 69 | 1007.0 |
| 20260905104015 | 17 | 246 | 20.9 | 35.4 | 0.00 | 2.54 | 0.38 | 70 | 1006.9 |
| 20260905103518 | 17 | 247 | 19.3 | 35.4 | 0.00 | 2.54 | 0.38 | 70 | 1006.8 |
| 20260905103031 | 17 | 253 | 16.1 | 32.2 | 0.00 | 2.54 | 0.38 | 73 | 1006.6 |
| 20260905102517 | 17 | 295 | 20.9 | 35.4 | 0.00 | 2.54 | 0.38 | 69 | 1006.6 |
| 20260905102015 | 17 | 265 | 17.7 | 35.4 | 0.00 | 2.54 | 0.38 | 71 | 1006.5 |
| 20260905101508 | 17 | 238 | 19.3 | 41.8 | 0.00 | 2.54 | 0.38 | 73 | 1006.6 |
| 20260905101006 | 17 | 292 | 24.1 | 48.3 | 0.00 | 2.54 | 0.38 | 71 | 1006.4 |
| 20260905100506 | 17 | 244 | 19.3 | 48.3 | 0.00 | 2.54 | 0.38 | 72 | 1006.5 |
| 20260905100010 | 17 | 269 | 24.1 | 45.1 | 0.00 | 2.54 | 0.38 | 69 | 1006.5 |
| 20260905095508 | 17 | 262 | 24.1 | 45.1 | 0.00 | 2.54 | 0.38 | 70 | 1006.5 |
| 20260905095012 | 17 | 244 | 19.3 | 37.0 | 0.00 | 2.57 | 0.38 | 73 | 1006.5 |
| 20260905094504 | 17 | 267 | 24.1 | 37.0 | 0.00 | 2.57 | 0.38 | 71 | 1006.4 |
| 20260905094005 | 17 | 250 | 19.3 | 33.8 | 0.00 | 2.59 | 0.38 | 73 | 1006.2 |
| 20260905093504 | 17 | 223 | 12.9 | 48.3 | 0.00 | 2.59 | 0.38 | 76 | 1006.2 |
| 20260905093004 | 17 | 269 | 16.1 | 48.3 | 0.00 | 2.62 | 0.38 | 73 | 1006.2 |
| 20260905092507 | 17 | 192 | 22.5 | 46.7 | 0.00 | 2.62 | 0.38 | 71 | 1006.1 |
| 20260905092006 | 17 | 244 | 24.1 | 46.7 | 0.00 | 2.62 | 0.38 | 73 | 1006.1 |
| 20260905091510 | 17 | 251 | 25.7 | 40.2 | 0.00 | 2.62 | 0.38 | 72 | 1006.2 |
| 20260905091008 | 17 | 239 | 19.3 | 35.4 | 0.00 | 2.62 | 0.38 | 72 | 1006.1 |
| 20260905090508 | 17 | 254 | 22.5 | 40.2 | 0.00 | 2.62 | 0.38 | 74 | 1006.1 |
| 20260905090010 | 16 | 288 | 22.5 | 40.2 | 0.00 | 2.62 | 0.38 | 74 | 1006.1 |
| 20260905085508 | 16 | 234 | 19.3 | 37.0 | 0.00 | 2.62 | 0.38 | 75 | 1006.1 |
| 20260905085004 | 16 | 248 | 24.1 | 38.6 | 0.00 | 2.62 | 0.38 | 76 | 1006.0 |
| 20260905084504 | 16 | 250 | 25.7 | 40.2 | 0.00 | 2.62 | 0.38 | 75 | 1006.0 |
| 20260905084003 | 16 | 240 | 22.5 | 40.2 | 0.00 | 2.62 | 0.38 | 75 | 1006.0 |
| 20260905083507 | 16 | 248 | 14.5 | 38.6 | 0.00 | 2.62 | 0.38 | 78 | 1005.9 |
| 20260905083009 | 17 | 239 | 19.3 | 33.8 | 0.00 | 2.62 | 0.38 | 78 | 1005.9 |
| 20260905082506 | 16 | 265 | 20.9 | 32.2 | 0.00 | 2.62 | 0.38 | 77 | 1005.8 |
| 20260905082007 | 16 | 257 | 19.3 | 32.2 | 0.00 | 2.62 | 0.38 | 80 | 1005.8 |
| 20260905081512 | 16 | 257 | 17.7 | 30.6 | 0.00 | 2.62 | 0.38 | 77 | 1005.8 |
| 20260905081010 | 16 | 244 | 19.3 | 40.2 | 0.00 | 2.62 | 0.38 | 78 | 1005.6 |
| 20260905080511 | 16 | 261 | 24.1 | 40.2 | 0.00 | 2.62 | 0.38 | 77 | 1005.7 |
| 20260905080015 | 16 | 243 | 20.9 | 45.1 | 0.00 | 2.62 | 0.38 | 81 | 1005.7 |
| 20260905075509 | 15 | 236 | 24.1 | 45.1 | 0.00 | 2.62 | 0.38 | 80 | 1005.7 |
| 20260905075006 | 16 | 269 | 20.9 | 30.6 | 0.00 | 2.62 | 0.38 | 79 | 1005.7 |
| 20260905074507 | 16 | 257 | 14.5 | 27.4 | 0.00 | 2.62 | 0.38 | 79 | 1005.6 |
| 20260905074004 | 16 | 244 | 14.5 | 27.4 | 0.00 | 2.62 | 0.38 | 81 | 1005.5 |
| 20260905073507 | 15 | 249 | 16.1 | 30.6 | 0.00 | 2.62 | 0.38 | 83 | 1005.4 |
| 20260905073008 | 15 | 282 | 16.1 | 30.6 | 0.00 | 2.62 | 0.38 | 83 | 1005.5 |
| 20260905072509 | 15 | 263 | 12.9 | 29.0 | 0.00 | 2.62 | 0.38 | 82 | 1005.4 |
| 20260905072010 | 15 | 267 | 16.1 | 24.1 | 0.00 | 2.62 | 0.38 | 82 | 1005.5 |
| 20260905071514 | 15 | 244 | 12.9 | 40.2 | 0.00 | 2.62 | 0.38 | 82 | 1005.3 |
| 20260905071011 | 15 | 256 | 14.5 | 40.2 | 0.00 | 2.62 | 0.38 | 81 | 1005.2 |
| 20260905070508 | 15 | 222 | 20.9 | 35.4 | 0.00 | 2.62 | 0.38 | 82 | 1005.2 |
| 20260905070025 | 15 | 252 | 24.1 | 35.4 | 0.00 | 2.62 | 0.38 | 82 | 1005.1 |
| 20260905065503 | 15 | 277 | 20.9 | 33.8 | 0.00 | 2.62 | 0.38 | 83 | 1005.1 |
| 20260905065005 | 15 | 239 | 16.1 | 38.6 | 0.00 | 2.62 | 0.38 | 84 | 1005.1 |
| 20260905064516 | 15 | 252 | 19.3 | 37.0 | 0.00 | 2.62 | 0.38 | 85 | 1005.1 |
| 20260905064003 | 14 | 299 | 20.9 | 33.8 | 0.00 | 2.62 | 0.38 | 85 | 1005.0 |
| 20260905063507 | 15 | 247 | 16.1 | 25.7 | 0.00 | 2.62 | 0.38 | 85 | 1005.1 |
| 20260905063014 | 15 | 258 | 17.7 | 25.7 | 0.00 | 2.62 | 0.38 | 84 | 1005.0 |
| 20260905062509 | 15 | 294 | 14.5 | 25.7 | 0.00 | 2.62 | 0.38 | 85 | 1005.0 |
| 20260905062010 | 14 | 244 | 12.9 | 29.0 | 0.00 | 2.62 | 0.38 | 86 | 1004.9 |
| 20260905061518 | 14 | 284 | 12.9 | 30.6 | 0.00 | 2.62 | 0.38 | 85 | 1004.9 |
| 20260905061010 | 14 | 248 | 20.9 | 30.6 | 0.00 | 2.62 | 0.38 | 85 | 1004.9 |
| 20260905060511 | 14 | 263 | 14.5 | 24.1 | 0.00 | 2.62 | 0.38 | 85 | 1004.7 |
| 20260905060022 | 14 | 267 | 16.1 | 24.1 | 0.00 | 2.62 | 0.38 | 85 | 1004.8 |
| 20260905055503 | 13 | 246 | 12.9 | 27.4 | 0.00 | 2.62 | 0.38 | 86 | 1004.7 |
| 20260905055006 | 13 | 267 | 17.7 | 29.0 | 0.00 | 2.62 | 0.38 | 86 | 1004.7 |
| 20260905054510 | 13 | 259 | 16.1 | 29.0 | 0.00 | 2.62 | 0.38 | 86 | 1004.7 |
| 20260905054010 | 13 | 268 | 16.1 | 29.0 | 0.00 | 2.62 | 0.38 | 87 | 1004.7 |
| 20260905053508 | 13 | 270 | 12.9 | 27.4 | 0.00 | 2.62 | 0.38 | 87 | 1004.6 |
| 20260905053016 | 13 | 288 | 14.5 | 32.2 | 0.00 | 2.62 | 0.38 | 87 | 1004.6 |
| 20260905052513 | 13 | 225 | 12.9 | 32.2 | 0.00 | 2.62 | 0.38 | 88 | 1004.5 |
| 20260905052010 | 13 | 272 | 12.9 | 29.0 | 0.00 | 2.62 | 0.38 | 88 | 1004.5 |
| 20260905051529 | 13 | 278 | 14.5 | 29.0 | 0.00 | 2.62 | 0.38 | 88 | 1004.4 |
| 20260905051013 | 13 | 245 | 14.5 | 29.0 | 0.00 | 2.62 | 0.38 | 88 | 1004.4 |
| 20260905050510 | 13 | 263 | 14.5 | 32.2 | 0.00 | 2.62 | 0.38 | 89 | 1004.4 |
| 20260905050018 | 13 | 247 | 12.9 | 32.2 | 0.00 | 2.62 | 0.38 | 89 | 1004.2 |
| 20260905045503 | 13 | 244 | 16.1 | 32.2 | 0.00 | 2.62 | 0.38 | 89 | 1004.1 |
| 20260905045005 | 13 | 274 | 16.1 | 32.2 | 0.00 | 2.62 | 0.38 | 89 | 1004.1 |
| 20260905044510 | 13 | 261 | 12.9 | 32.2 | 0.00 | 2.62 | 0.38 | 89 | 1004.0 |
| 20260905044010 | 13 | 307 | 17.7 | 32.2 | 0.00 | 2.62 | 0.38 | 89 | 1003.9 |
| 20260905043513 | 13 | 229 | 12.9 | 32.2 | 0.00 | 2.62 | 0.38 | 89 | 1003.9 |
| 20260905043023 | 13 | 229 | 14.5 | 32.2 | 0.00 | 2.62 | 0.38 | 89 | 1003.8 |
| 20260905042513 | 13 | 204 | 17.7 | 30.6 | 0.00 | 2.62 | 0.38 | 89 | 1003.7 |
| 20260905042013 | 13 | 275 | 19.3 | 32.2 | 0.00 | 2.62 | 0.38 | 89 | 1003.7 |
| 20260905041518 | 13 | 255 | 17.7 | 32.2 | 0.00 | 2.62 | 0.38 | 88 | 1003.7 |
| 20260905041014 | 13 | 275 | 16.1 | 27.4 | 0.00 | 2.62 | 0.38 | 88 | 1003.7 |
| 20260905040510 | 13 | 263 | 17.7 | 27.4 | 0.00 | 2.62 | 0.38 | 88 | 1003.5 |
| 20260905040015 | 13 | 256 | 14.5 | 25.7 | 0.00 | 2.62 | 0.38 | 89 | 1003.5 |
| 20260905035507 | 13 | 273 | 16.1 | 27.4 | 0.00 | 2.62 | 0.38 | 89 | 1003.5 |
| 20260905035006 | 13 | 292 | 14.5 | 27.4 | 0.00 | 2.62 | 0.38 | 88 | 1003.5 |
| 20260905034523 | 13 | 259 | 16.1 | 25.7 | 0.00 | 2.62 | 0.38 | 88 | 1003.5 |
| 20260905034015 | 13 | 265 | 14.5 | 37.0 | 0.00 | 2.62 | 0.38 | 88 | 1003.5 |
| 20260905033510 | 13 | 252 | 16.1 | 37.0 | 0.00 | 2.62 | 0.38 | 88 | 1003.5 |
| 20260905033027 | 13 | 286 | 16.1 | 30.6 | 0.00 | 2.62 | 0.38 | 88 | 1003.4 |
| 20260905032518 | 12 | 255 | 11.3 | 27.4 | 0.00 | 2.62 | 0.38 | 88 | 1003.4 |
| 20260905032017 | 12 | 270 | 14.5 | 38.6 | 0.00 | 2.62 | 0.38 | 88 | 1003.3 |
| 20260905031523 | 12 | 304 | 17.7 | 38.6 | 0.00 | 2.62 | 0.38 | 89 | 1003.2 |
| 20260905031013 | 12 | 274 | 14.5 | 30.6 | 0.00 | 2.62 | 0.38 | 89 | 1003.2 |
| 20260905030511 | 12 | 264 | 19.3 | 29.0 | 0.00 | 2.62 | 0.38 | 89 | 1003.2 |
| 20260905030008 | 12 | 213 | 14.5 | 24.1 | 0.00 | 2.62 | 0.38 | 89 | 1003.2 |
| 20260905025507 | 12 | 288 | 12.9 | 30.6 | 0.00 | 2.62 | 0.38 | 89 | 1003.2 |
| 20260905025007 | 12 | 257 | 9.7 | 30.6 | 0.00 | 2.62 | 0.38 | 89 | 1003.1 |
| 20260905024515 | 12 | 248 | 17.7 | 27.4 | 0.00 | 2.62 | 0.38 | 89 | 1003.0 |
| 20260905024012 | 12 | 246 | 12.9 | 27.4 | 0.00 | 2.62 | 0.38 | 89 | 1002.9 |
| 20260905023514 | 13 | 262 | 16.1 | 30.6 | 0.00 | 2.62 | 0.38 | 89 | 1002.9 |
| 20260905023026 | 13 | 258 | 14.5 | 30.6 | 0.00 | 2.62 | 0.38 | 89 | 1002.8 |
| 20260905022514 | 13 | 288 | 17.7 | 30.6 | 0.00 | 2.62 | 0.38 | 89 | 1002.9 |
| 20260905022014 | 13 | 267 | 16.1 | 30.6 | 0.00 | 2.62 | 0.38 | 89 | 1002.8 |
| 20260905021535 | 13 | 239 | 14.5 | 33.8 | 0.00 | 2.62 | 0.38 | 90 | 1002.7 |
| 20260905021012 | 13 | 273 | 16.1 | 35.4 | 0.00 | 2.62 | 0.38 | 90 | 1002.7 |
| 20260905020506 | 13 | 246 | 20.9 | 35.4 | 0.00 | 2.62 | 0.38 | 91 | 1002.5 |
| 20260905020013 | 13 | 234 | 17.7 | 32.2 | 0.00 | 2.62 | 0.38 | 91 | 1002.4 |
| 20260905015510 | 13 | 288 | 11.3 | 33.8 | 0.00 | 2.62 | 0.38 | 91 | 1002.4 |
| 20260905015011 | 13 | 253 | 20.9 | 33.8 | 0.00 | 2.62 | 0.38 | 91 | 1002.4 |
| 20260905014519 | 13 | 261 | 14.5 | 27.4 | 0.00 | 2.62 | 0.38 | 91 | 1002.3 |
| 20260905014010 | 13 | 233 | 14.5 | 24.1 | 0.00 | 2.62 | 0.38 | 91 | 1002.2 |
| 20260905013514 | 13 | 227 | 11.3 | 24.1 | 0.00 | 2.62 | 0.36 | 92 | 1002.2 |
| 20260905013025 | 13 | 250 | 16.1 | 30.6 | 0.00 | 2.62 | 0.36 | 92 | 1002.1 |
| 20260905012515 | 13 | 254 | 14.5 | 33.8 | 0.00 | 2.62 | 0.36 | 92 | 1002.1 |
| 20260905012017 | 13 | 272 | 14.5 | 33.8 | 0.23 | 2.62 | 0.36 | 92 | 1002.1 |
| 20260905011526 | 13 | 257 | 11.3 | 24.1 | 0.23 | 2.62 | 0.36 | 92 | 1002.0 |
| 20260905011016 | 13 | 267 | 14.5 | 29.0 | 0.36 | 2.62 | 0.36 | 92 | 1001.9 |
| 20260905010508 | 13 | 275 | 12.9 | 29.0 | 0.36 | 2.62 | 0.36 | 92 | 1001.9 |
| 20260905010016 | 13 | 261 | 16.1 | 27.4 | 0.36 | 2.62 | 0.36 | 92 | 1002.0 |
| 20260905005511 | 13 | 264 | 16.1 | 37.0 | 0.36 | 2.62 | 0.36 | 92 | 1002.0 |
| 20260905005012 | 13 | 280 | 14.5 | 37.0 | 0.36 | 2.62 | 0.36 | 91 | 1001.9 |
| 20260905004524 | 13 | 276 | 17.7 | 32.2 | 0.36 | 2.62 | 0.36 | 92 | 1001.9 |
| 20260905004015 | 13 | 259 | 19.3 | 32.2 | 0.36 | 2.62 | 0.36 | 92 | 1001.8 |
| 20260905003517 | 13 | 237 | 11.3 | 24.1 | 0.36 | 2.62 | 0.36 | 92 | 1001.7 |
| 20260905003034 | 13 | 295 | 8.0 | 19.3 | 0.36 | 2.62 | 0.36 | 92 | 1001.7 |
| 20260905002516 | 13 | 267 | 6.4 | 19.3 | 0.36 | 2.59 | 0.36 | 91 | 1001.6 |
| 20260905002014 | 13 | 246 | 14.5 | 20.9 | 0.13 | 2.36 | 0.13 | 91 | 1001.5 |
| 20260905001530 | 13 | 275 | 11.3 | 20.9 | 0.13 | 2.36 | 0.13 | 90 | 1001.5 |
| 20260905001014 | 13 | 246 | 9.7 | 19.3 | 0.00 | 2.24 | 0.00 | 90 | 1001.7 |
| 20260905000508 | 13 | 219 | 9.7 | 19.3 | 0.00 | 2.24 | 0.00 | 90 | 1001.5 |
| 20260905000016 | 13 | 261 | 8.0 | 17.7 | 0.00 | 2.24 | 0.00 | 90 | 1001.6 |
| 20260904235511 | 13 | 275 | 8.0 | 22.5 | 0.00 | 2.24 | 0.00 | 90 | 1001.5 |
| 20260904235012 | 13 | 250 | 12.9 | 22.5 | 0.00 | 2.24 | 0.00 | 90 | 1001.5 |
| 20260904234527 | 13 | 253 | 12.9 | 22.5 | 0.00 | 2.24 | 0.00 | 89 | 1001.5 |
| 20260904234016 | 13 | 291 | 14.5 | 22.5 | 0.00 | 2.24 | 0.00 | 89 | 1001.4 |
| 20260904233514 | 13 | 260 | 12.9 | 25.7 | 0.00 | 2.24 | 0.00 | 89 | 1001.4 |
| 20260904233030 | 13 | 285 | 12.9 | 27.4 | 0.00 | 2.24 | 0.00 | 89 | 1001.4 |
| 20260904232517 | 13 | 236 | 16.1 | 27.4 | 0.00 | 2.24 | 0.00 | 89 | 1001.3 |
| 20260904232016 | 13 | 261 | 14.5 | 24.1 | 0.00 | 2.24 | 0.00 | 89 | 1001.4 |
| 20260904231530 | 13 | 268 | 12.9 | 25.7 | 0.00 | 2.24 | 0.00 | 89 | 1001.4 |
| 20260904231007 | 13 | 267 | 12.9 | 29.0 | 0.00 | 2.24 | 0.00 | 1001.3 | |
| 20260904230510 | 13 | 255 | 16.1 | 29.0 | 0.00 | 2.24 | 0.00 | 89 | 1001.4 |
| 20260904230019 | 13 | 250 | 14.5 | 29.0 | 0.00 | 2.24 | 0.00 | 89 | 1001.3 |
| 20260904225511 | 13 | 250 | 14.5 | 29.0 | 0.00 | 2.24 | 0.00 | 89 | 1001.3 |
| 20260904225017 | 13 | 294 | 12.9 | 45.1 | 0.00 | 2.24 | 0.00 | 89 | 1001.4 |
| 20260904224528 | 13 | 260 | 16.1 | 45.1 | 0.00 | 2.24 | 0.00 | 89 | 1001.3 |
| 20260904224017 | 13 | 298 | 22.5 | 46.7 | 0.00 | 2.24 | 0.00 | 89 | 1001.3 |
| 20260904223517 | 13 | 292 | 22.5 | 46.7 | 0.00 | 2.24 | 0.00 | 90 | 1001.2 |
| 20260904223037 | 13 | 309 | 16.1 | 30.6 | 0.00 | 2.24 | 0.00 | 90 | 1001.2 |
| 20260904222519 | 13 | 238 | 14.5 | 38.6 | 0.00 | 2.24 | 0.00 | 90 | 1001.2 |
| 20260904222017 | 13 | 280 | 17.7 | 38.6 | 0.00 | 2.24 | 0.00 | 90 | 1001.1 |
| 20260904221534 | 13 | 273 | 20.9 | 38.6 | 0.00 | 2.24 | 0.00 | 90 | 1000.9 |
| 20260904221012 | 13 | 259 | 24.1 | 38.6 | 0.00 | 2.24 | 0.00 | 90 | 1000.9 |
| 20260904220511 | 13 | 272 | 16.1 | 35.4 | 0.00 | 2.24 | 0.00 | 90 | 1000.9 |
| 20260904220027 | 13 | 281 | 14.5 | 32.2 | 0.00 | 2.24 | 0.00 | 90 | 1000.9 |
| 20260904215503 | 13 | 260 | 17.7 | 32.2 | 0.00 | 2.24 | 2.24 | 90 | 1000.8 |
| 20260904215005 | 13 | 244 | 16.1 | 33.8 | 0.00 | 2.24 | 2.24 | 90 | 1000.8 |
| 20260904214508 | 13 | 269 | 19.3 | 33.8 | 0.00 | 2.24 | 2.24 | 90 | 1000.8 |
| 20260904214010 | 13 | 259 | 14.5 | 32.2 | 0.00 | 2.24 | 2.24 | 91 | 1000.8 |
| 20260904213510 | 13 | 243 | 16.1 | 29.0 | 0.00 | 2.24 | 2.24 | 91 | 1000.7 |
| 20260904213016 | 13 | 255 | 16.1 | 30.6 | 0.00 | 2.24 | 2.24 | 91 | 1000.7 |
| 20260904212512 | 13 | 248 | 16.1 | 32.2 | 0.00 | 2.24 | 2.24 | 91 | 1000.6 |
| 20260904212011 | 13 | 306 | 12.9 | 32.2 | 0.00 | 2.24 | 2.24 | 92 | 1000.6 |
| 20260904211533 | 13 | 302 | 14.5 | 27.4 | 0.00 | 2.24 | 2.24 | 92 | 1000.5 |
| 20260904211003 | 13 | 225 | 11.3 | 29.0 | 0.00 | 2.24 | 2.24 | 92 | 1000.5 |
| 20260904210504 | 13 | 240 | 14.5 | 29.0 | 0.00 | 2.24 | 2.24 | 92 | 1000.5 |
| 20260904210006 | 13 | 269 | 9.7 | 38.6 | 0.00 | 2.24 | 2.24 | 92 | 1000.5 |
| 20260904205501 | 13 | 266 | 19.3 | 38.6 | 0.00 | 2.24 | 2.24 | 92 | 1000.5 |
| 20260904205005 | 13 | 247 | 12.9 | 27.4 | 0.00 | 2.24 | 2.24 | 1000.5 | |
| 20260904204507 | 13 | 241 | 16.1 | 33.8 | 0.00 | 2.24 | 2.24 | 1000.3 | |
| 20260904204010 | 13 | 284 | 19.3 | 33.8 | 0.00 | 2.24 | 2.24 | 1000.3 | |
| 20260904203510 | 13 | 241 | 17.7 | 32.2 | 0.00 | 2.24 | 2.24 | 1000.4 | |
| 20260904203027 | 13 | 273 | 9.7 | 32.2 | 0.00 | 2.24 | 2.24 | 94 | 1000.3 |
| 20260904202509 | 13 | 250 | 12.9 | 29.0 | 0.00 | 2.24 | 2.24 | 94 | 1000.3 |
| 20260904202013 | 13 | 262 | 9.7 | 24.1 | 0.03 | 2.24 | 2.24 | 94 | 1000.2 |
| 20260904201530 | 13 | 235 | 9.7 | 25.7 | 0.08 | 2.24 | 2.24 | 93 | 1000.2 |
| 20260904201005 | 13 | 269 | 9.7 | 27.4 | 0.13 | 2.24 | 2.24 | 93 | 1000.2 |
| 20260904200504 | 13 | 275 | 16.1 | 27.4 | 0.20 | 2.24 | 2.24 | 93 | 1000.1 |
| 20260904200008 | 13 | 275 | 14.5 | 25.7 | 0.25 | 2.24 | 2.24 | 93 | 1000.2 |
| 20260904195507 | 13 | 244 | 17.7 | 29.0 | 0.33 | 2.24 | 2.24 | 93 | 1000.1 |
| 20260904195004 | 13 | 273 | 14.5 | 29.0 | 0.36 | 2.24 | 2.24 | 93 | 1000.0 |
| 20260904194525 | 13 | 239 | 16.1 | 27.4 | 0.36 | 2.24 | 2.24 | 93 | 1000.0 |
| 20260904194011 | 13 | 268 | 14.5 | 24.1 | 0.36 | 2.24 | 2.24 | 93 | 1000.0 |
| 20260904193512 | 13 | 258 | 16.1 | 24.1 | 0.36 | 2.24 | 2.24 | 93 | 999.8 |
| 20260904193034 | 13 | 267 | 12.9 | 19.3 | 0.36 | 2.24 | 2.24 | 93 | 999.8 |
| 20260904192514 | 13 | 254 | 12.9 | 19.3 | 0.36 | 2.21 | 2.21 | 93 | 999.7 |
| 20260904192014 | 13 | 267 | 14.5 | 19.3 | 0.33 | 2.18 | 2.18 | 93 | 999.6 |
| 20260904191528 | 13 | 260 | 8.0 | 22.5 | 0.28 | 2.16 | 2.16 | 93 | 999.6 |
| 20260904191003 | 13 | 257 | 9.7 | 22.5 | 0.23 | 2.08 | 2.08 | 93 | 999.6 |